Time,TemperatureF,DewpointF,PressureIn,WindDirection,WindDirectionDegrees,WindSpeedMPH,WindSpeedGustMPH,Humidity,HourlyPrecipIn,Conditions,Clouds,dailyrainin,SoftwareType,DateUTC
2013-11-26 00:14:00,22.7,20.0,30.29,NW,316,6.0,8.0,89,0.00,,,0.00,weatherlink.com 1.10,2013-11-26 07:14:00,
2013-11-26 00:29:00,23.8,21.0,30.29,NW,311,7.0,11.0,88,0.00,,,0.00,weatherlink.com 1.10,2013-11-26 07:29:00,
2013-11-26 00:44:00,22.9,20.0,30.29,NW,309,6.0,9.0,87,0.00,,,0.00,weatherlink.com 1.10,2013-11-26 07:44:00,
2013-11-26 00:59:00,22.3,20.0,30.29,NW,316,7.0,8.0,89,0.00,,,0.00,weatherlink.com 1.10,2013-11-26 07:59:00,
2013-11-26 01:14:00,22.5,20.0,30.29,NW,319,9.0,11.0,89,0.00,,,0.00,weatherlink.com 1.10,2013-11-26 08:14:00,
2013-11-26 01:29:00,24.1,21.0,30.30,NW,323,9.0,12.0,87,0.00,,,0.00,weatherlink.com 1.10,2013-11-26 08:29:00,
2013-11-26 01:44:00,24.0,21.0,30.30,NW,321,7.0,10.0,87,0.00,,,0.00,weatherlink.com 1.10,2013-11-26 08:44:00,
2013-11-26 01:59:00,24.3,21.0,30.30,NW,324,5.0,9.0,87,0.00,,,0.00,weatherlink.com 1.10,2013-11-26 08:59:00,
2013-11-26 02:14:00,24.5,21.0,30.30,NW,326,8.0,9.0,86,0.00,,,0.00,weatherlink.com 1.10,2013-11-26 09:14:00,
2013-11-26 02:29:00,24.4,21.0,30.29,NW,317,8.0,11.0,86,0.00,,,0.00,weatherlink.com 1.10,2013-11-26 09:29:00,
2013-11-26 02:44:00,24.3,20.0,30.30,NW,322,7.0,10.0,85,0.00,,,0.00,weatherlink.com 1.10,2013-11-26 09:44:00,
2013-11-26 02:59:00,23.5,20.0,30.30,NW,324,6.0,7.0,86,0.00,,,0.00,weatherlink.com 1.10,2013-11-26 09:59:00,
2013-11-26 03:14:00,23.2,20.0,30.30,NW,319,6.0,7.0,87,0.00,,,0.00,weatherlink.com 1.10,2013-11-26 10:14:00,
2013-11-26 03:29:00,22.3,19.0,30.30,NW,314,6.0,7.0,87,0.00,,,0.00,weatherlink.com 1.10,2013-11-26 10:29:00,
2013-11-26 03:44:00,22.8,20.0,30.30,NW,319,3.0,9.0,87,0.00,,,0.00,weatherlink.com 1.10,2013-11-26 10:44:00,
2013-11-26 03:59:00,21.8,19.0,30.30,NW,316,9.0,10.0,88,0.00,,,0.00,weatherlink.com 1.10,2013-11-26 10:59:00,
2013-11-26 04:14:00,22.9,20.0,30.30,NW,316,7.0,10.0,87,0.00,,,0.00,weatherlink.com 1.10,2013-11-26 11:14:00,
2013-11-26 04:29:00,23.0,20.0,30.31,NW,310,8.0,10.0,88,0.00,,,0.00,weatherlink.com 1.10,2013-11-26 11:29:00,
2013-11-26 04:44:00,23.7,21.0,30.31,NW,309,6.0,9.0,88,0.00,,,0.00,weatherlink.com 1.10,2013-11-26 11:44:00,
2013-11-26 04:59:00,23.9,21.0,30.32,NW,315,7.0,8.0,88,0.00,,,0.00,weatherlink.com 1.10,2013-11-26 11:59:00,
2013-11-26 05:14:00,23.1,20.0,30.32,NW,316,5.0,7.0,87,0.00,,,0.00,weatherlink.com 1.10,2013-11-26 12:14:00,
2013-11-26 05:29:00,21.8,19.0,30.32,NNW,338,4.0,6.0,88,0.00,,,0.00,weatherlink.com 1.10,2013-11-26 12:29:00,
2013-11-26 05:44:00,21.5,19.0,30.33,NNW,338,3.0,5.0,90,0.00,,,0.00,weatherlink.com 1.10,2013-11-26 12:44:00,
2013-11-26 05:59:00,21.7,19.0,30.33,NNW,338,3.0,5.0,89,0.00,,,0.00,weatherlink.com 1.10,2013-11-26 12:59:00,
2013-11-26 06:14:00,22.1,19.0,30.34,NNW,328,3.0,5.0,88,0.00,,,0.00,weatherlink.com 1.10,2013-11-26 13:14:00,
2013-11-26 06:29:00,21.0,18.0,30.34,NW,315,3.0,5.0,88,0.00,,,0.00,weatherlink.com 1.10,2013-11-26 13:29:00,
2013-11-26 06:44:00,19.8,17.0,30.35,NW,321,3.0,4.0,89,0.00,,,0.00,weatherlink.com 1.10,2013-11-26 13:44:00,
2013-11-26 06:59:00,19.8,17.0,30.35,NNW,333,2.0,3.0,89,0.00,,,0.00,weatherlink.com 1.10,2013-11-26 13:59:00,
2013-11-26 07:14:00,19.5,17.0,30.36,NNW,332,3.0,4.0,88,0.00,,,0.00,weatherlink.com 1.10,2013-11-26 14:14:00,
2013-11-26 07:30:00,21.2,19.0,30.36,NNW,332,3.0,4.0,91,0.00,,,0.00,weatherlink.com 1.10,2013-11-26 14:30:00,
2013-11-26 07:45:00,25.0,22.0,30.37,NNW,339,5.0,8.0,89,0.00,,,0.00,weatherlink.com 1.10,2013-11-26 14:45:00,
2013-11-26 08:15:00,28.0,24.0,30.38,NNW,347,6.0,9.0,84,0.00,,,0.00,weatherlink.com 1.10,2013-11-26 15:15:00,
2013-11-26 08:30:00,29.0,24.0,30.38,NNW,328,9.0,10.0,81,0.00,,,0.00,weatherlink.com 1.10,2013-11-26 15:30:00,
2013-11-26 08:45:00,29.5,24.0,30.39,NNW,338,6.0,10.0,79,0.00,,,0.00,weatherlink.com 1.10,2013-11-26 15:45:00,
2013-11-26 09:00:00,29.7,23.0,30.39,North,352,8.0,12.0,77,0.00,,,0.00,weatherlink.com 1.10,2013-11-26 16:00:00,
2013-11-26 09:15:00,30.1,23.0,30.39,North,352,8.0,12.0,74,0.00,,,0.00,weatherlink.com 1.10,2013-11-26 16:15:00,
2013-11-26 09:30:00,30.6,22.0,30.40,NNW,334,8.0,11.0,71,0.00,,,0.00,weatherlink.com 1.10,2013-11-26 16:30:00,
2013-11-26 09:45:00,31.1,22.0,30.39,NNW,340,6.0,14.0,70,0.00,,,0.00,weatherlink.com 1.10,2013-11-26 16:45:00,
2013-11-26 10:00:00,30.8,21.0,30.39,NNE,25,5.0,9.0,68,0.00,,,0.00,weatherlink.com 1.10,2013-11-26 17:00:00,
2013-11-26 10:30:00,31.7,21.0,30.40,NNW,332,7.0,11.0,66,0.00,,,0.00,weatherlink.com 1.10,2013-11-26 17:30:00,
2013-11-26 10:45:00,32.1,22.0,30.39,NE,35,11.0,11.0,67,0.00,,,0.00,weatherlink.com 1.10,2013-11-26 17:45:00,
2013-11-26 11:00:00,32.0,22.0,30.39,North,5,6.0,10.0,68,0.00,,,0.00,weatherlink.com 1.10,2013-11-26 18:00:00,
2013-11-26 11:15:00,32.3,22.0,30.39,NNE,30,6.0,9.0,66,0.00,,,0.00,weatherlink.com 1.10,2013-11-26 18:15:00,
2013-11-26 11:30:00,32.5,22.0,30.39,NNW,340,7.0,10.0,65,0.00,,,0.00,weatherlink.com 1.10,2013-11-26 18:30:00,
2013-11-26 11:45:00,32.8,22.0,30.38,NNW,345,6.0,14.0,64,0.00,,,0.00,weatherlink.com 1.10,2013-11-26 18:45:00,
2013-11-26 12:00:00,33.1,22.0,30.38,NE,48,9.0,12.0,65,0.00,,,0.00,weatherlink.com 1.10,2013-11-26 19:00:00,
2013-11-26 12:30:00,33.9,22.0,30.36,North,356,6.0,12.0,62,0.00,,,0.00,weatherlink.com 1.10,2013-11-26 19:30:00,
2013-11-26 12:45:00,34.2,22.0,30.36,NE,49,7.0,11.0,61,0.00,,,0.00,weatherlink.com 1.10,2013-11-26 19:45:00,
2013-11-26 13:00:00,34.7,22.0,30.35,NNW,333,5.0,15.0,59,0.00,,,0.00,weatherlink.com 1.10,2013-11-26 20:00:00,
2013-11-26 13:15:00,34.7,22.0,30.35,NNE,27,9.0,13.0,59,0.00,,,0.00,weatherlink.com 1.10,2013-11-26 20:15:00,
2013-11-26 13:31:00,34.9,22.0,30.35,NNW,340,5.0,12.0,60,0.00,,,0.00,weatherlink.com 1.10,2013-11-26 20:31:00,
2013-11-26 13:46:00,35.2,22.0,30.34,NNW,335,7.0,10.0,58,0.00,,,0.00,weatherlink.com 1.10,2013-11-26 20:46:00,
2013-11-26 14:01:00,35.3,23.0,30.34,NNE,25,8.0,11.0,60,0.00,,,0.00,weatherlink.com 1.10,2013-11-26 21:01:00,
2013-11-26 14:16:00,35.2,22.0,30.34,NNW,339,7.0,11.0,60,0.00,,,0.00,weatherlink.com 1.10,2013-11-26 21:16:00,
2013-11-26 14:31:00,35.3,22.0,30.34,NNE,32,2.0,10.0,59,0.00,,,0.00,weatherlink.com 1.10,2013-11-26 21:31:00,
2013-11-26 14:46:00,35.6,23.0,30.34,NW,314,5.0,7.0,60,0.00,,,0.00,weatherlink.com 1.10,2013-11-26 21:46:00,
2013-11-26 15:01:00,35.7,23.0,30.34,NNW,342,2.0,5.0,60,0.00,,,0.00,weatherlink.com 1.10,2013-11-26 22:01:00,
2013-11-26 15:16:00,35.4,23.0,30.34,NE,49,2.0,7.0,60,0.00,,,0.00,weatherlink.com 1.10,2013-11-26 22:16:00,
2013-11-26 15:31:00,35.3,23.0,30.33,North,352,3.0,6.0,60,0.00,,,0.00,weatherlink.com 1.10,2013-11-26 22:31:00,
2013-11-26 15:46:00,35.0,23.0,30.33,ENE,60,3.0,5.0,61,0.00,,,0.00,weatherlink.com 1.10,2013-11-26 22:46:00,
2013-11-26 16:01:00,34.5,23.0,30.33,ENE,77,0.0,2.0,63,0.00,,,0.00,weatherlink.com 1.10,2013-11-26 23:01:00,
2013-11-26 16:16:00,33.9,23.0,30.33,ENE,78,1.0,1.0,64,0.00,,,0.00,weatherlink.com 1.10,2013-11-26 23:16:00,
2013-11-26 16:31:00,32.0,22.0,30.33,ENE,76,3.0,3.0,66,0.00,,,0.00,weatherlink.com 1.10,2013-11-26 23:31:00,
2013-11-26 16:46:00,31.2,21.0,30.32,ESE,102,1.0,2.0,67,0.00,,,0.00,weatherlink.com 1.10,2013-11-26 23:46:00,
2013-11-26 17:01:00,30.7,22.0,30.32,East,81,2.0,3.0,70,0.00,,,0.00,weatherlink.com 1.10,2013-11-27 00:01:00,
2013-11-26 17:16:00,30.1,22.0,30.32,East,86,0.0,3.0,72,0.00,,,0.00,weatherlink.com 1.10,2013-11-27 00:16:00,
2013-11-26 17:31:00,29.0,22.0,30.31,East,80,0.0,0.0,75,0.00,,,0.00,weatherlink.com 1.10,2013-11-27 00:31:00,
2013-11-26 17:46:00,27.7,21.0,30.31,SW,225,3.0,4.0,77,0.00,,,0.00,weatherlink.com 1.10,2013-11-27 00:46:00,
2013-11-26 18:01:00,25.5,20.0,30.32,SW,226,4.0,4.0,80,0.00,,,0.00,weatherlink.com 1.10,2013-11-27 01:01:00,
2013-11-26 18:16:00,24.5,20.0,30.32,SW,223,2.0,4.0,83,0.00,,,0.00,weatherlink.com 1.10,2013-11-27 01:16:00,
2013-11-26 18:31:00,24.0,20.0,30.32,SW,224,3.0,4.0,85,0.00,,,0.00,weatherlink.com 1.10,2013-11-27 01:31:00,
2013-11-26 18:46:00,23.9,20.0,30.32,SW,223,3.0,3.0,85,0.00,,,0.00,weatherlink.com 1.10,2013-11-27 01:46:00,
2013-11-26 19:01:00,23.5,20.0,30.32,SW,225,1.0,2.0,85,0.00,,,0.00,weatherlink.com 1.10,2013-11-27 02:01:00,
2013-11-26 19:16:00,22.9,19.0,30.32,SSW,197,2.0,4.0,86,0.00,,,0.00,weatherlink.com 1.10,2013-11-27 02:16:00,
2013-11-26 19:31:00,23.2,20.0,30.32,SW,225,4.0,5.0,86,0.00,,,0.00,weatherlink.com 1.10,2013-11-27 02:31:00,
2013-11-26 19:46:00,23.1,20.0,30.32,SW,235,4.0,5.0,86,0.00,,,0.00,weatherlink.com 1.10,2013-11-27 02:46:00,
2013-11-26 20:01:00,23.0,19.0,30.32,SW,236,3.0,5.0,86,0.00,,,0.00,weatherlink.com 1.10,2013-11-27 03:01:00,
2013-11-26 20:16:00,22.2,19.0,30.32,SW,236,4.0,5.0,87,0.00,,,0.00,weatherlink.com 1.10,2013-11-27 03:16:00,
2013-11-26 20:31:00,22.3,19.0,30.32,WSW,243,7.0,9.0,87,0.00,,,0.00,weatherlink.com 1.10,2013-11-27 03:31:00,
2013-11-26 20:46:00,22.5,20.0,30.32,SW,235,8.0,9.0,88,0.00,,,0.00,weatherlink.com 1.10,2013-11-27 03:46:00,
2013-11-26 21:01:00,22.9,19.0,30.32,SW,233,7.0,7.0,86,0.00,,,0.00,weatherlink.com 1.10,2013-11-27 04:01:00,
2013-11-26 21:16:00,22.4,19.0,30.32,WSW,248,7.0,7.0,87,0.00,,,0.00,weatherlink.com 1.10,2013-11-27 04:16:00,
2013-11-26 21:31:00,21.8,19.0,30.32,WSW,238,4.0,7.0,87,0.00,,,0.00,weatherlink.com 1.10,2013-11-27 04:31:00,
2013-11-26 21:46:00,21.5,19.0,30.31,SW,236,6.0,7.0,88,0.00,,,0.00,weatherlink.com 1.10,2013-11-27 04:46:00,
2013-11-26 22:01:00,21.6,18.0,30.31,SW,236,7.0,7.0,87,0.00,,,0.00,weatherlink.com 1.10,2013-11-27 05:01:00,
2013-11-26 22:16:00,21.9,19.0,30.31,SW,236,5.0,6.0,87,0.00,,,0.00,weatherlink.com 1.10,2013-11-27 05:16:00,
2013-11-26 22:31:00,21.2,18.0,30.31,SW,236,5.0,6.0,87,0.00,,,0.00,weatherlink.com 1.10,2013-11-27 05:31:00,
2013-11-26 22:46:00,20.9,18.0,30.31,WSW,248,5.0,5.0,88,0.00,,,0.00,weatherlink.com 1.10,2013-11-27 05:46:00,
2013-11-26 23:01:00,21.3,18.0,30.30,WSW,249,6.0,7.0,88,0.00,,,0.00,weatherlink.com 1.10,2013-11-27 06:01:00,
2013-11-26 23:16:00,21.6,18.0,30.30,WSW,246,5.0,6.0,87,0.00,,,0.00,weatherlink.com 1.10,2013-11-27 06:16:00,
2013-11-26 23:31:00,21.9,19.0,30.30,WSW,249,6.0,7.0,87,0.00,,,0.00,weatherlink.com 1.10,2013-11-27 06:31:00,
2013-11-26 23:46:00,22.0,19.0,30.29,SW,234,8.0,8.0,87,0.00,,,0.00,weatherlink.com 1.10,2013-11-27 06:46:00,